This is the latest recevied weather packets stored in our database for station/object K5OLV. If no packets are shown the sender has not sent any weather packets the latest 10 day(s).
| Time | Temp. | Humidity | Pressure | Rain* | Wind** | Luminosity | Snow |
|---|---|---|---|---|---|---|---|
| 1777758526 | 16.11° C | 43% | 1011.6 hPa | 0 mm | - | 370 W/m² | - |
| 1777758223 | 16.11° C | 43% | 1011.6 hPa | 0 mm | - | 398 W/m² | - |
| 1777757920 | 15.56° C | 40% | 1011.6 hPa | 0 mm | - | 401 W/m² | - |
| 1777757617 | 15.56° C | 43% | 1011.5 hPa | 0 mm | - | 415 W/m² | - |
| 1777757316 | 14.44° C | 45% | 1011.7 hPa | 0 mm | - | 453 W/m² | - |
| 1777757014 | 15° C | 42% | 1011.5 hPa | 0 mm | - | 123 W/m² | - |
| 1777756711 | 16.11° C | 43% | 1011.6 hPa | 0 mm | - | 215 W/m² | - |
| 1777756406 | 15.56° C | 45% | 1011.6 hPa | 0 mm | - | 500 W/m² | - |
| 1777756104 | 14.44° C | 46% | 1011.7 hPa | 0 mm | - | 131 W/m² | - |
| 1777755801 | 14.44° C | 44% | 1011.6 hPa | 0 mm | - | 159 W/m² | - |
| 1777755498 | 14.44° C | 45% | 1011.7 hPa | 0 mm | - | 188 W/m² | - |
| 1777755194 | 15° C | 45% | 1011.6 hPa | 0 mm | - | 151 W/m² | - |
| 1777754891 | 16.11° C | 44% | 1011.6 hPa | 0 mm | - | 156 W/m² | - |
| 1777754588 | 16.11° C | 44% | 1011.9 hPa | 0 mm | - | 591 W/m² | - |
| 1777754286 | 16.11° C | 46% | 1011.9 hPa | 0 mm | - | 600 W/m² | - |
| 1777753984 | 15° C | 47% | 1011.4 hPa | 0 mm | - | 663 W/m² | - |
| 1777753683 | 15° C | 44% | 1011.9 hPa | 0 mm | - | 324 W/m² | - |
| 1777753381 | 16.11° C | 46% | 1011.6 hPa | 0 mm | - | 192 W/m² | - |
| 1777753079 | 15.56° C | 45% | 1011.6 hPa | 0 mm | - | 704 W/m² | - |
| 1777752775 | 15° C | 46% | 1012 hPa | 0 mm | - | 688 W/m² | - |
| 1777752471 | 15° C | 44% | 1012.1 hPa | 0 mm | - | 171 W/m² | - |
| 1777752167 | 15.56° C | 44% | 1011.6 hPa | 0 mm | - | 198 W/m² | - |
| 1777751866 | 16.11° C | 42% | 1011.7 hPa | 0 mm | - | 705 W/m² | - |
| 1777751562 | 15.56° C | 44% | 1011.9 hPa | 0 mm | - | 118 W/m² | - |
| 1777751259 | 16.11° C | 40% | 1011.9 hPa | 0 mm | - | 688 W/m² | - |
* Rain latest hour (hover to see other rain measurements)
** Current wind speed in m/s (hover to see current wind gust speed)